Weather History for KTEW - March, 2014

Change the Weather History Date:

Friday, March 14, 2014

  Actual Average (KLAN) Record (KLAN)
Temperature  
Mean Temperature 32 °F 34 °F  
Max Temperature 48 °F 43 °F 79 °F (2012)
Min Temperature 17 °F 25 °F -2 °F (1877)
Degree Days  
Heating Degree Days 32 31  
Month to date heating degree days 467  
Since 1 July heating degree days 5402  
Cooling Degree Days 0 0  
Month to date cooling degree days 0  
Year to date cooling degree days 0  
Moisture  
Dew Point 26 °F    
Average Humidity 66    
Maximum Humidity 84    
Minimum Humidity 49    
Precipitation  
Precipitation 0.00 in 0.07 in 0.90 in (1904)
Month to date precipitation 0.85  
Year to date precipitation 3.97  
Snow  
Snow 0.00 in 0.20 in 10.00 in (1904)
Month to date snowfall 4.0  
Since 1 July snowfall 46.2  
Snow Depth -    
Sea Level Pressure  
Sea Level Pressure 29.70 in    
Wind  
Wind Speed 7 mph (SSW)    
Max Wind Speed 22 mph    
Max Gust Speed 31 mph    
Visibility 10 miles    
Events      
T = Trace of Precipitation, MM = Missing Value Source: NWS Daily Summary

Daily Weather History Graph

Daily Weather History Graph

Search for Another Location

Airport or City:

Trip Planner

Search our weather history database for the weather conditions in past years. The results will help you decide how hot, cold, wet, or windy it might be!

Date:

Astronomy

Mar. 14, 2014 Rise Set
Actual Time 7:51 AM EDT 7:42 PM EDT
Civil Twilight 7:23 AM EDT 8:11 PM EDT
Nautical Twilight 6:50 AM EDT 8:43 PM EDT
Astronomical Twilight 6:17 AM EDT 9:17 PM EDT
Moon 6:02 PM EDT (3/14) 6:32 AM EDT (3/14)
Length of Visible Light 12h 47m
Length of Day
11h 51m
Waxing Gibbous, 96% of the Moon is Illuminated
Mar 14
Waxing Gibbous
Mar 16
Full
Mar 23
Last Quarter
Mar 30
New
Apr 7
First Quarter

Hourly Weather History & Observations

Time (EDT) Temp. Windchill Dew Point Humidity Pressure Visibility Wind Dir Wind Speed Gust Speed Precip Events Conditions
12:14 AM 17.6 °F 12.3 °F 11.5 °F 77% 29.91 in 10.0 mi South 3.5 mph - N/A   Clear
12:35 AM 18.3 °F 11.5 °F 12.4 °F 78% 29.89 in 10.0 mi South 4.6 mph - N/A   Clear
12:54 AM 17.4 °F 12.1 °F 12.4 °F 81% 29.88 in 10.0 mi South 3.5 mph - N/A   Clear
1:14 AM 17.8 °F - 12.9 °F 81% 29.87 in 10.0 mi Calm Calm - N/A   Clear
1:34 AM 19.4 °F 14.3 °F 14.9 °F 83% 29.86 in 10.0 mi South 3.5 mph - N/A   Clear
1:54 AM 20.1 °F - 15.6 °F 83% 29.86 in 10.0 mi Calm Calm - N/A   Clear
2:13 AM 20.7 °F - 16.5 °F 84% 29.86 in 10.0 mi Calm Calm - N/A   Clear
2:34 AM 27.1 °F 21.8 °F 21.7 °F 80% 29.85 in 10.0 mi SSW 4.6 mph - N/A   Clear
2:54 AM 30.6 °F 23.1 °F 23.5 °F 75% 29.84 in 10.0 mi SW 8.1 mph - N/A   Clear
3:13 AM 31.6 °F 25.1 °F 24.3 °F 74% 29.83 in 10.0 mi SSW 6.9 mph - N/A   Clear
3:34 AM 32.5 °F 25.5 °F 25.0 °F 74% 29.81 in 10.0 mi SSW 8.1 mph 19.6 mph N/A   Clear
3:54 AM 32.9 °F 27.5 °F 25.3 °F 74% 29.81 in 10.0 mi SSW 5.8 mph - N/A   Clear
4:13 AM 33.3 °F 26.4 °F 25.7 °F 74% 29.80 in 10.0 mi SSW 8.1 mph - N/A   Clear
4:34 AM 34.2 °F 26.8 °F 26.2 °F 73% 29.78 in 10.0 mi SSW 9.2 mph - N/A   Clear
4:54 AM 34.9 °F 26.6 °F 26.6 °F 72% 29.78 in 10.0 mi SSW 11.5 mph 18.4 mph N/A   Clear
5:13 AM 35.6 °F 27.5 °F 27.1 °F 71% 29.76 in 10.0 mi SW 11.5 mph 24.2 mph N/A   Clear
5:34 AM 35.6 °F 28.6 °F 27.1 °F 71% 29.76 in 10.0 mi SSW 9.2 mph 21.9 mph N/A   Clear
5:54 AM 35.6 °F 28.0 °F 27.3 °F 72% 29.74 in 10.0 mi SSW 10.4 mph 18.4 mph N/A   Clear
6:14 AM 35.8 °F 33.0 °F 27.5 °F 72% 29.73 in 10.0 mi SSW 3.5 mph - N/A   Clear
6:34 AM 36.0 °F 32.1 °F 27.7 °F 72% 29.73 in 10.0 mi SSW 4.6 mph - N/A   Clear
6:53 AM 36.5 °F 31.8 °F 27.9 °F 71% 29.72 in 10.0 mi SSW 5.8 mph - N/A   Clear
7:14 AM 36.5 °F 32.7 °F 27.9 °F 71% 29.71 in 10.0 mi SSW 4.6 mph - N/A   Clear
7:34 AM 36.7 °F 31.2 °F 27.9 °F 70% 29.70 in 10.0 mi South 6.9 mph - N/A   Clear
7:53 AM 36.1 °F 31.4 °F 27.7 °F 71% 29.70 in 10.0 mi South 5.8 mph - N/A   Clear
8:14 AM 36.1 °F 31.4 °F 27.5 °F 71% 29.69 in 10.0 mi South 5.8 mph - N/A   Clear
8:34 AM 36.3 °F 31.6 °F 27.5 °F 70% 29.69 in 10.0 mi South 5.8 mph - N/A   Clear
8:53 AM 36.7 °F 31.2 °F 27.5 °F 69% 29.68 in 10.0 mi South 6.9 mph - N/A   Clear
9:14 AM 37.4 °F 31.4 °F 27.7 °F 68% 29.67 in 10.0 mi South 8.1 mph - N/A   Clear
9:34 AM 39.0 °F 34.0 °F 28.2 °F 65% 29.67 in 10.0 mi SSW 6.9 mph - N/A   Clear
9:54 AM 41.5 °F 37.8 °F 28.4 °F 60% 29.66 in 10.0 mi SSW 5.8 mph 17.3 mph N/A   Clear
10:14 AM 42.6 °F 35.9 °F 28.6 °F 58% 29.65 in 10.0 mi SW 12.7 mph 18.4 mph N/A   Clear
10:34 AM 43.3 °F 38.1 °F 28.6 °F 56% 29.65 in 10.0 mi SSW 9.2 mph 21.9 mph N/A   Clear
10:54 AM 43.7 °F 36.9 °F 28.8 °F 56% 29.64 in 10.0 mi SW 13.8 mph 23.0 mph N/A   Clear
11:14 AM 44.4 °F 38.6 °F 29.1 °F 55% 29.62 in 10.0 mi SSW 11.5 mph 21.9 mph N/A   Clear
11:34 AM 45.3 °F 39.3 °F 29.1 °F 53% 29.62 in 10.0 mi SSW 12.7 mph 19.6 mph N/A   Clear
11:54 AM 45.9 °F 39.4 °F 29.1 °F 52% 29.59 in 10.0 mi SSW 15.0 mph 25.3 mph N/A   Clear
12:14 PM 46.0 °F 40.2 °F 29.1 °F 52% 29.58 in 10.0 mi SSW 12.7 mph 24.2 mph N/A   Clear
12:34 PM 47.5 °F - 29.3 °F 49% 29.56 in 10.0 mi South 10.4 mph 19.6 mph N/A   Clear
12:54 PM 47.3 °F - 29.3 °F 50% 29.56 in 10.0 mi SSW 11.5 mph 20.7 mph N/A   Clear
1:13 PM 47.8 °F - 29.3 °F 49% 29.58 in 10.0 mi SW 16.1 mph 25.3 mph N/A   Clear
1:34 PM 48.2 °F - 29.7 °F 49% 29.58 in 10.0 mi SW 13.8 mph 25.3 mph N/A   Clear
1:54 PM 48.4 °F - 29.8 °F 49% 29.56 in 10.0 mi SW 13.8 mph 25.3 mph N/A   Clear
2:13 PM 47.8 °F - 29.8 °F 50% 29.55 in 10.0 mi SW 15.0 mph 29.9 mph N/A   Scattered Clouds
2:34 PM 47.5 °F - 30.0 °F 51% 29.54 in 10.0 mi SW 17.3 mph 29.9 mph N/A   Scattered Clouds
2:54 PM 47.7 °F - 30.2 °F 51% 29.53 in 10.0 mi SW 21.9 mph 31.1 mph N/A   Scattered Clouds
3:14 PM 48.2 °F - 30.4 °F 50% 29.53 in 10.0 mi SW 18.4 mph 31.1 mph N/A   Scattered Clouds
3:15 PM 48.0 °F - 30.4 °F 51% 29.53 in 10.0 mi SW 16.1 mph 31.1 mph N/A   Clear